KH2PM Weather Reports


time (UTC)temp
C
wind
direction
speed
KPH
gust
KPH
rain 1hr
cm
rain 24hr
cm
rain mn
cm
humidity
%
barometer
mb
20260901062504 24 152 0.0 0.0 0.00 0.00 0.00 90 1018.2
20260901062003 24 134 0.0 1.6 0.00 0.00 0.00 90 1018.3
20260901061503 24 138 0.0 1.6 0.00 0.00 0.00 90 1018.3
20260901061004 24 134 0.0 1.6 0.00 0.00 0.00 89 1018.3
20260901060504 24 128 0.0 0.0 0.00 0.00 0.00 88 1018.3
20260901060004 24 130 0.0 3.2 0.00 0.00 0.00 88 1018.3
20260901055504 24 136 1.6 3.2 0.00 0.00 0.00 88 1018.3
20260901055003 24 135 1.6 3.2 0.00 0.00 0.00 87 1018.4
20260901054504 24 141 1.6 3.2 0.00 0.00 0.00 87 1018.4
20260901053004 25 146 1.6 3.2 0.00 0.00 0.00 86 1018.6
20260901052510 25 141 1.6 4.8 0.00 0.00 0.00 85 1018.7
20260901051504 25 141 3.2 4.8 0.00 0.00 0.00 85 1018.6
20260901051004 25 141 1.6 4.8 0.00 0.00 0.00 84 1018.6
20260901050504 25 144 3.2 4.8 0.00 0.00 0.00 84 1018.5
20260901050003 25 156 1.6 4.8 0.00 0.00 0.00 84 1018.5
20260901045005 25 145 0.0 1.6 0.00 0.00 0.00 83 1018.6
20260901044506 25 145 0.0 0.0 0.00 0.00 0.00 83 1018.5
20260901044004 25 145 1.6 3.2 0.00 0.00 0.00 83 1018.4
20260901042503 25 130 1.6 1.6 0.00 0.00 0.00 82 1018.2
20260901042004 25 127 1.6 8.0 0.00 0.00 0.00 82 1018.1
20260901041504 25 137 3.2 4.8 0.00 0.00 0.00 82 1018.1
20260901041006 25 134 1.6 4.8 0.00 0.00 0.00 81 1018.2
20260901040503 25 149 0.0 1.6 0.00 0.00 0.00 82 1018.2
20260901040004 25 149 1.6 4.8 0.00 0.00 0.00 82 1018.2
20260901034504 25 119 1.6 3.2 0.00 0.00 0.00 83 1018.2
20260901034003 25 137 1.6 3.2 0.00 0.00 0.00 83 1018.3
20260901033504 25 155 0.0 0.0 0.00 0.00 0.00 83 1018.3
20260901033005 25 155 0.0 0.0 0.00 0.00 0.00 83 1018.2
20260901032504 25 155 0.0 1.6 0.00 0.00 0.00 83 1018.2
20260901032004 25 155 0.0 0.0 0.00 0.00 0.00 83 1018.1
20260901031505 25 155 0.0 0.0 0.00 0.00 0.00 83 1018.1
20260901031004 25 155 0.0 0.0 0.00 0.00 0.00 83 1018.1
20260901030504 25 155 0.0 0.0 0.00 0.00 0.00 82 1018.1
20260901030004 25 155 0.0 0.0 0.00 0.00 0.00 82 1018.2
20260901025504 25 155 0.0 0.0 0.00 0.00 0.00 82 1018.2
20260901025004 25 155 0.0 0.0 0.00 0.00 0.00 82 1018.2
20260901024503 25 155 0.0 0.0 0.00 0.00 0.00 82 1018.3
20260901024004 25 155 0.0 0.0 0.00 0.00 0.00 82 1018.2
20260901023504 25 155 0.0 0.0 0.00 0.00 0.00 82 1018.3
20260901022504 25 155 0.0 0.0 0.00 0.00 0.00 82 1018.3
20260901022003 25 155 0.0 0.0 0.00 0.00 0.00 82 1018.2
20260901021505 25 155 0.0 0.0 0.00 0.00 0.00 82 1018.2
20260901020503 25 155 0.0 0.0 0.00 0.00 0.00 82 1018.2
20260901020004 25 155 0.0 0.0 0.00 0.00 0.00 82 1018.3
20260901015504 25 155 0.0 0.0 0.00 0.00 0.00 82 1018.3
20260901015004 25 155 0.0 0.0 0.00 0.00 0.00 82 1018.2
20260901014504 25 155 0.0 0.0 0.00 0.00 0.00 82 1018.1
20260901014004 26 155 0.0 0.0 0.00 0.00 0.00 82 1018.0
20260901013504 26 155 0.0 0.0 0.00 0.00 0.00 82 1018.0
20260901013005 26 155 0.0 0.0 0.00 0.00 0.00 82 1018.0
20260901012504 26 155 0.0 0.0 0.00 0.00 0.00 82 1017.9
20260901012004 26 155 0.0 0.0 0.00 0.00 0.00 81 1017.8
20260901011504 26 155 0.0 0.0 0.00 0.00 0.00 80 1017.8
20260901011004 26 155 0.0 0.0 0.00 0.00 0.00 79 1017.7
20260901010504 26 155 0.0 0.0 0.00 0.00 0.00 80 1017.7
20260901005503 26 155 0.0 0.0 0.00 0.00 0.00 77 1017.5
20260901005004 26 155 0.0 0.0 0.00 0.00 0.00 78 1017.4
20260901004504 26 155 0.0 0.0 0.00 0.00 0.00 76 1017.4
20260901004004 26 155 0.0 0.0 0.00 0.00 0.00 76 1017.4
20260901003504 26 155 1.6 3.2 0.00 0.00 0.00 76 1017.4
20260901002504 27 155 0.0 0.0 0.00 0.00 0.00 75 1017.4
20260901002004 27 155 0.0 0.0 0.00 0.00 0.00 75 1017.3
20260901001504 27 155 0.0 0.0 0.00 0.00 0.00 73 1017.3
20260901001003 27 155 0.0 0.0 0.00 0.00 0.00 73 1017.2
20260901000503 27 155 0.0 0.0 0.00 0.00 0.00 70 1017.2
20260901000003 28 155 0.0 0.0 0.00 0.00 0.00 70 1017.1
20260831235503 28 155 0.0 3.2 0.00 0.00 0.00 70 1017.2
20260831234504 29 303 0.0 0.0 0.00 0.00 0.00 69 1017.2
20260831234004 30 303 0.0 0.0 0.00 0.00 0.00 62 1017.2
20260831233504 30 303 0.0 0.0 0.00 0.00 0.00 60 1017.2
20260831233004 30 303 0.0 0.0 0.00 0.00 0.00 61 1017.2
20260831232504 30 303 0.0 0.0 0.00 0.00 0.00 59 1017.2
20260831232004 31 303 0.0 0.0 0.00 0.00 0.00 59 1017.2
20260831231505 31 303 0.0 0.0 0.00 0.00 0.00 58 1017.1
20260831231004 31 303 0.0 0.0 0.00 0.00 0.00 58 1017.1
20260831230503 31 303 0.0 0.0 0.00 0.00 0.00 55 1017.0
20260831230004 31 303 0.0 0.0 0.00 0.00 0.00 56 1017.0
20260831225004 32 303 0.0 0.0 0.00 0.00 0.00 55 1017.1
20260831224504 32 303 0.0 0.0 0.00 0.00 0.00 54 1017.1
20260831224003 33 303 0.0 0.0 0.00 0.00 0.00 52 1017.1
20260831223504 33 303 0.0 0.0 0.00 0.00 0.00 51 1017.1
20260831223003 33 319 0.0 0.0 0.00 0.00 0.00 50 1017.0
20260831222504 34 237 0.0 1.6 0.00 0.00 0.00 48 1017.1
20260831222004 35 143 0.0 0.0 0.00 0.00 0.00 48 1017.0
20260831221504 35 111 0.0 0.0 0.00 0.00 0.00 48 1017.0
20260831221003 35 239 0.0 0.0 0.00 0.00 0.00 47 1017.0
20260831220503 35 224 0.0 0.0 0.00 0.00 0.00 45 1017.1
20260831220003 35 316 0.0 0.0 0.00 0.00 0.00 45 1017.1
20260831215004 36 211 0.0 0.0 0.00 0.00 0.00 47 1017.2
20260831214504 35 211 0.0 0.0 0.00 0.00 0.00 48 1017.2
20260831214004 35 219 0.0 0.0 0.00 0.00 0.00 46 1017.2
20260831213504 35 45 0.0 0.0 0.00 0.00 0.00 44 1017.4
20260831212003 35 277 0.0 0.0 0.00 0.00 0.00 45 1017.4
20260831211503 35 193 0.0 0.0 0.00 0.00 0.00 46 1017.4
20260831210504 35 328 0.0 0.0 0.00 0.00 0.00 45 1017.4
20260831210004 35 20 0.0 0.0 0.00 0.00 0.00 46 1017.5
20260831205504 35 126 0.0 0.0 0.00 0.00 0.00 46 1017.5
20260831204504 35 330 0.0 0.0 0.00 0.00 0.00 48 1017.6
20260831203503 35 257 0.0 0.0 0.00 0.00 0.00 48 1017.5
20260831203004 35 220 0.0 1.6 0.00 0.00 0.00 49 1017.7
20260831202504 35 227 0.0 0.0 0.00 0.00 0.00 48 1017.8
20260831201503 35 196 0.0 1.6 0.00 0.00 0.00 48 1017.8
20260831201004 35 310 0.0 3.2 0.00 0.00 0.00 47 1017.8
20260831200504 35 343 1.6 4.8 0.00 0.00 0.00 47 1017.7
20260831200004 35 323 0.0 3.2 0.00 0.00 0.00 47 1017.8
20260831195504 35 315 1.6 4.8 0.00 0.00 0.00 50 1017.8
20260831195003 35 329 0.0 0.0 0.00 0.00 0.00 49 1017.8
20260831194503 34 192 0.0 1.6 0.00 0.00 0.00 52 1017.9
20260831194004 35 154 1.6 8.0 0.00 0.00 0.00 50 1017.9
20260831193504 35 94 0.0 0.0 0.00 0.00 0.00 49 1018.0
20260831193004 35 242 0.0 1.6 0.00 0.00 0.00 49 1018.1
20260831192504 35 27 0.0 0.0 0.00 0.00 0.00 51 1018.1
20260831192003 34 238 0.0 0.0 0.00 0.00 0.00 51 1018.2
20260831191503 34 45 0.0 4.8 0.00 0.00 0.00 50 1018.2
20260831191004 34 36 3.2 8.0 0.00 0.00 0.00 51 1018.4
20260831190503 34 334 4.8 4.8 0.00 0.00 0.00 50 1018.5
20260831190004 34 193 1.6 4.8 0.00 0.00 0.00 52 1018.5
20260831185504 34 286 3.2 8.0 0.00 0.00 0.00 51 1018.6
20260831185003 33 0 0.0 1.6 0.00 0.00 0.00 50 1018.6
20260831184503 33 1 0.0 1.6 0.00 0.00 0.00 54 1018.6
20260831184004 33 336 0.0 1.6 0.00 0.00 0.00 55 1018.7
20260831183504 33 245 0.0 3.2 0.00 0.00 0.00 52 1018.7
20260831182504 33 318 0.0 3.2 0.00 0.00 0.00 54 1018.8
20260831182003 33 307 0.0 4.8 0.00 0.00 0.00 54 1018.8
20260831181504 33 340 0.0 4.8 0.00 0.00 0.00 55 1018.8
20260831181003 33 359 0.0 1.6 0.00 0.00 0.00 56 1018.8
20260831180504 33 114 0.0 0.0 0.00 0.00 0.00 55 1018.9
20260831180004 33 116 0.0 4.8 0.00 0.00 0.00 58 1018.9
20260831175504 33 287 1.6 4.8 0.00 0.00 0.00 55 1019.0
20260831175003 33 4 0.0 1.6 0.00 0.00 0.00 55 1019.0
20260831173503 32 271 0.0 3.2 0.00 0.00 0.00 59 1019.1
20260831173004 32 123 3.2 4.8 0.00 0.00 0.00 58 1019.1
20260831172504 32 143 3.2 4.8 0.00 0.00 0.00 59 1019.1
20260831171503 32 291 0.0 1.6 0.00 0.00 0.00 61 1019.1
20260831170504 32 57 3.2 4.8 0.00 0.00 0.00 61 1019.2
20260831170004 32 282 0.0 3.2 0.00 0.00 0.00 61 1019.2
20260831165504 32 287 0.0 0.0 0.00 0.00 0.00 60 1019.2
20260831165003 32 291 0.0 4.8 0.00 0.00 0.00 62 1019.2
20260831164504 32 130 1.6 4.8 0.00 0.00 0.00 62 1019.3
20260831164004 32 119 0.0 4.8 0.00 0.00 0.00 60 1019.3
20260831163504 32 57 1.6 4.8 0.00 0.00 0.00 62 1019.4
20260831163003 32 284 0.0 1.6 0.00 0.00 0.00 59 1019.6
20260831162004 32 167 0.0 4.8 0.00 0.00 0.00 64 1019.7
20260831161004 31 109 1.6 4.8 0.00 0.00 0.00 65 1019.6
20260831160503 31 350 0.0 4.8 0.00 0.00 0.00 67 1019.6
20260831155504 31 326 1.6 4.8 0.00 0.00 0.00 67 1019.8
20260831155003 31 54 0.0 0.0 0.00 0.00 0.00 68 1019.8
20260831154504 30 315 0.0 4.8 0.00 0.00 0.00 68 1019.8
20260831153504 31 354 0.0 4.8 0.00 0.00 0.00 67 1020.0
20260831153004 31 272 0.0 0.0 0.00 0.00 0.00 68 1020.1
20260831152504 30 257 0.0 4.8 0.00 0.00 0.00 68 1020.1
20260831152004 30 350 3.2 8.0 0.00 0.00 0.00 69 1020.1
20260831151503 30 332 3.2 9.7 0.00 0.00 0.00 69 1020.1
20260831151004 30 182 1.6 4.8 0.00 0.00 0.00 72 1020.1
20260831150504 30 270 0.0 4.8 0.00 0.00 0.00 73 1020.2
20260831150004 30 1 1.6 9.7 0.00 0.00 0.00 71 1020.1
20260831145504 30 317 3.2 9.7 0.00 0.00 0.00 71 1020.1
20260831145004 30 217 3.2 9.7 0.00 0.00 0.00 71 1020.1
20260831144505 30 325 4.8 11.3 0.00 0.00 0.00 71 1020.1
20260831144003 30 322 1.6 4.8 0.00 0.00 0.00 73 1020.1
20260831143504 29 320 1.6 4.8 0.00 0.00 0.00 74 1020.0
20260831143004 29 318 1.6 4.8 0.00 0.00 0.00 74 1020.0
20260831142003 29 254 1.6 4.8 0.00 0.00 0.00 76 1019.8
20260831141504 28 226 1.6 4.8 0.00 0.00 0.00 76 1019.8
20260831141004 28 270 1.6 4.8 0.00 0.00 0.00 76 1019.8
20260831140504 28 284 1.6 4.8 0.00 0.00 0.00 78 1019.8
20260831140004 28 312 3.2 4.8 0.00 0.00 0.00 77 1019.7
20260831135503 28 17 3.2 4.8 0.00 0.00 0.00 78 1019.7
20260831135004 28 117 1.6 3.2 0.00 0.00 0.00 80 1019.7
20260831134004 27 350 3.2 4.8 0.00 0.00 0.00 82 1019.6
20260831133504 27 282 3.2 4.8 0.00 0.00 0.00 83 1019.6
20260831132504 27 337 1.6 4.8 0.00 0.00 0.00 85 1019.7
20260831132005 26 327 1.6 4.8 0.00 0.00 0.00 86 1019.6
20260831131504 26 320 1.6 4.8 0.00 0.00 0.00 88 1019.7
20260831131004 26 312 1.6 4.8 0.00 0.00 0.00 88 1019.7
20260831130004 26 333 3.2 4.8 0.00 0.00 0.00 90 1019.8
20260831125004 25 334 1.6 4.8 0.00 0.00 0.00 91 1019.8
20260831124504 25 344 1.6 3.2 0.00 0.00 0.00 92 1019.9
20260831124003 25 332 0.0 1.6 0.00 0.00 0.00 92 1019.8
20260831123503 24 268 0.0 1.6 0.00 0.00 0.00 94 1019.8
20260831123004 24 312 0.0 1.6 0.00 0.00 0.00 94 1019.8
20260831122504 24 299 0.0 1.6 0.00 0.00 0.00 96 1019.8
20260831122004 23 252 0.0 0.0 0.00 0.00 0.00 97 1019.8
20260831121503 23 15 0.0 0.0 0.00 0.00 0.00 96 1019.9
20260831121004 23 104 0.0 0.0 0.00 0.00 0.00 97 1019.9
20260831120504 23 115 0.0 0.0 0.00 0.00 0.00 97 1019.8
20260831120004 22 131 0.0 0.0 0.00 0.00 0.00 97 1019.8
20260831115004 22 161 0.0 0.0 0.00 0.00 0.00 96 1019.7
20260831114503 22 161 0.0 0.0 0.00 0.00 0.00 97 1019.6
20260831114004 21 161 0.0 0.0 0.00 0.00 0.00 96 1019.5
20260831113504 21 161 0.0 0.0 0.00 0.00 0.00 96 1019.5
20260831113004 21 161 0.0 0.0 0.00 0.00 0.00 96 1019.5
20260831112504 21 161 0.0 0.0 0.00 0.00 0.00 96 1019.6
20260831112004 21 161 0.0 0.0 0.00 0.00 0.00 95 1019.7
20260831111504 21 161 0.0 0.0 0.00 0.00 0.00 96 1019.8
20260831111004 21 161 0.0 0.0 0.00 0.00 0.00 96 1019.8
20260831110503 21 161 0.0 0.0 0.00 0.00 0.00 96 1019.6
20260831110004 21 161 0.0 0.0 0.00 0.00 0.00 96 1019.6
20260831105505 21 161 0.0 0.0 0.00 0.00 0.00 96 1019.5
20260831105004 20 161 0.0 0.0 0.00 0.00 0.00 95 1019.4
20260831104504 21 161 0.0 0.0 0.00 0.00 0.00 95 1019.4
20260831104003 21 161 0.0 0.0 0.00 0.00 0.00 95 1019.5
20260831103503 21 161 0.0 0.0 0.00 0.00 0.00 95 1019.5
20260831103004 21 161 0.0 0.0 0.00 0.00 0.00 96 1019.4
20260831102504 21 161 0.0 0.0 0.00 0.00 0.00 95 1019.4
20260831101503 21 161 0.0 0.0 0.00 0.00 0.00 95 1019.4
20260831101003 21 161 0.0 0.0 0.00 0.00 0.00 96 1019.4
20260831100504 21 161 0.0 0.0 0.00 0.00 0.00 96 1019.3
20260831100004 21 161 0.0 0.0 0.00 0.00 0.00 96 1019.2
20260831095504 21 161 0.0 0.0 0.00 0.00 0.00 96 1019.1
20260831095003 21 161 0.0 0.0 0.00 0.00 0.00 95 1019.2
20260831093504 21 161 0.0 0.0 0.00 0.00 0.00 95 1019.2
20260831093004 21 161 0.0 0.0 0.00 0.00 0.00 95 1019.1
20260831092504 21 161 0.0 0.0 0.00 0.00 0.00 95 1019.2
20260831092004 21 161 0.0 0.0 0.00 0.00 0.00 95 1019.3
20260831090504 21 161 0.0 0.0 0.00 0.00 0.00 95 1019.1
20260831090004 21 161 0.0 0.0 0.00 0.00 0.00 95 1019.2
20260831085504 21 161 0.0 0.0 0.00 0.00 0.00 95 1019.2
20260831085003 21 161 0.0 0.0 0.00 0.00 0.00 95 1019.2
20260831084504 21 161 0.0 0.0 0.00 0.00 0.00 95 1019.2
20260831084004 21 161 0.0 0.0 0.00 0.00 0.00 95 1019.1
20260831083503 21 161 0.0 0.0 0.00 0.00 0.00 95 1019.2
20260831083004 21 161 0.0 0.0 0.00 0.00 0.00 95 1019.1
20260831082504 21 161 0.0 0.0 0.00 0.00 0.00 95 1019.1
20260831082003 21 161 0.0 0.0 0.00 0.00 0.00 95 1019.1
20260831081503 21 161 0.0 0.0 0.00 0.00 0.00 95 1019.2
20260831081004 21 161 0.0 0.0 0.00 0.00 0.00 95 1019.2
20260831080504 21 161 0.0 0.0 0.00 0.00 0.00 95 1019.1
20260831080004 21 161 0.0 0.0 0.00 0.00 0.00 95 1019.1
20260831075504 21 161 0.0 0.0 0.00 0.00 0.00 95 1019.1
20260831075004 21 161 0.0 0.0 0.00 0.00 0.00 95 1019.1
20260831074504 21 161 0.0 0.0 0.00 0.00 0.00 95 1019.1
20260831074004 21 161 0.0 0.0 0.00 0.00 0.00 95 1019.3
20260831073504 21 161 0.0 0.0 0.00 0.00 0.00 95 1019.3
20260831073004 21 161 0.0 0.0 0.00 0.00 0.00 95 1019.3
20260831072504 21 161 0.0 0.0 0.00 0.00 0.00 95 1019.4
20260831072004 21 161 0.0 0.0 0.00 0.00 0.00 95 1019.3
20260831071504 21 161 0.0 0.0 0.00 0.00 0.00 95 1019.3
20260831071004 21 161 0.0 0.0 0.00 0.00 0.00 95 1019.3
20260831070504 21 161 0.0 0.0 0.00 0.00 0.00 95 1019.4
20260831070003 21 161 0.0 0.0 0.00 0.00 0.00 95 1019.4
20260831065503 21 161 0.0 0.0 0.00 0.00 0.00 94 1019.5
20260831064504 22 161 0.0 0.0 0.00 0.00 0.00 95 1019.5
20260831063504 21 161 0.0 0.0 0.00 0.00 0.00 95 1019.6